Location: Moscow
(55.7500°N, 37.5830°E)
Time: 20:49:50
(UTC+03:00)

Transit 2A Rocket - Pass Details

Date: 09 December 2021
Orbit: 584 x 917 km, 66.7° (Epoch: 23 January)

Event Time Altitude Azimuth Distance (km) Brightness Sun altitude
Rises 07:34:38 0° 214° (SW) 3,390 8.3 -9.2°
Reaches altitude 10° 07:37:02 10° 213° (SSW) 2,498 7.6 -8.9°
Maximum altitude 07:42:52 76° 129° (SE) 931 5.6 -8.1°
Drops below altitude 10° 07:49:01 10° 45° (NE) 2,620 8.0 -7.4°
Sets 07:51:34 0° 44° (NE) 3,567 8.6 -7.1°
